Location: Seattle
(47.6064°N, 122.3308°W)
Time: 14:13:20
(UTC-08:00)

S-56A Canister/Altair - Pass Details

Date: 05 October 2022
Orbit: 638 x 2494 km, 38.9° (Epoch: 02 December)

Event Time Altitude Azimuth Distance (km) Brightness Sun altitude
Exits shadow 03:22:59 37° 131° (SE) 2,044 9.6 -37.1°
Drops below altitude 10° 03:27:30 10° 105° (ESE) 3,093 10.9 -36.5°
Sets 03:29:54 0° 99° (E) 3,846 11.6 -36.2°
